DW6860 Weather Reports


Display with metric or nautical units.
time (UTC)temp
F
wind
direction
speed
MPH
gust
MPH
rain 1hr
in
rain 24hr
in
rain mn
in
humidity
%
barometer
mb
20260508164135 66 103 0.0 2.0 0.00 0.00 0.00 45 1016.3
20260508164012 66 160 0.0 3.0 0.00 0.00 0.00 44 1016.4
20260508163640 66 242 0.0 3.0 0.00 0.00 0.00 45 1016.3
20260508163512 66 115 0.0 3.0 0.00 0.00 0.00 45 1016.4
20260508163149 65 148 0.0 3.0 0.00 0.00 0.00 43 1016.3
20260508163014 65 91 0.0 2.0 0.00 0.00 0.00 42 1016.4
20260508162637 65 49 0.0 3.0 0.00 0.00 0.00 40 1016.3
20260508162511 65 124 0.0 3.0 0.00 0.00 0.00 41 1016.3
20260508162317 65 98 1.0 3.0 0.00 0.00 0.00 42 1016.3
20260508162156 65 144 0.0 3.0 0.00 0.00 0.00 40 1016.2
20260508162013 65 133 0.0 3.0 0.00 0.00 0.00 40 1016.3
20260508161512 65 145 1.0 3.0 0.00 0.00 0.00 41 1016.3
20260508161140 65 145 1.0 3.0 0.00 0.00 0.00 41 1016.3
20260508161012 65 154 1.0 3.0 0.00 0.00 0.00 41 1016.4
20260508160636 65 145 1.0 2.0 0.00 0.00 0.00 43 1016.4
20260508160511 65 174 1.0 2.0 0.00 0.00 0.00 42 1016.4
20260508160125 65 198 1.0 4.0 0.00 0.00 0.00 44 1016.3
20260508160014 65 69 1.0 8.0 0.00 0.00 0.00 43 1016.4
20260508155719 66 62 2.0 8.0 0.00 0.00 0.00 44 1016.5
20260508155644 66 86 2.0 8.0 0.00 0.00 0.00 44 1016.4
20260508155512 66 41 1.0 8.0 0.00 0.00 0.00 44 1016.4
20260508155012 66 25 2.0 7.0 0.00 0.00 0.00 45 1016.4
20260508154617 66 10 3.0 6.0 0.00 0.00 0.00 47 1016.3
20260508154511 66 24 3.0 6.0 0.00 0.00 0.00 46 1016.4
20260508154121 66 18 2.0 6.0 0.00 0.00 0.00 47 1016.5
20260508154013 66 26 2.0 6.0 0.00 0.00 0.00 48 1016.6
20260508153953 65 34 1.0 3.0 0.00 0.00 0.00 47 1016.7
20260508153945 65 11 1.0 4.0 0.00 0.00 0.00 47 1016.7
20260508153728 65 76 1.0 6.0 0.00 0.00 0.00 48 1016.5
20260508153512 65 17 1.0 5.0 0.00 0.00 0.00 49 1016.6
20260508153149 65 15 2.0 5.0 0.00 0.00 0.00 47 1016.7
20260508153012 65 26 1.0 5.0 0.00 0.00 0.00 47 1016.6
20260508152512 65 64 1.0 3.0 0.00 0.00 0.00 48 1016.7
20260508152012 65 90 1.0 3.0 0.00 0.00 0.00 46 1016.8
20260508151621 65 28 1.0 4.0 0.00 0.00 0.00 47 1016.7
20260508151512 65 66 1.0 4.0 0.00 0.00 0.00 48 1016.8
20260508151145 65 140 1.0 4.0 0.00 0.00 0.00 47 1016.8
20260508151014 65 88 1.0 4.0 0.00 0.00 0.00 47 1016.8
20260508150624 65 13 1.0 4.0 0.00 0.00 0.00 48 1016.8
20260508150533 65 101 1.0 4.0 0.00 0.00 0.00 48 1016.8
20260508150122 65 61 1.0 5.0 0.00 0.00 0.00 48 1016.8
20260508150012 65 139 1.0 5.0 0.00 0.00 0.00 48 1016.8
20260508145625 65 74 1.0 5.0 0.00 0.00 0.00 48 1016.9
20260508145533 65 184 1.0 5.0 0.00 0.00 0.00 49 1016.9
20260508145118 65 160 1.0 5.0 0.00 0.00 0.00 48 1016.8
20260508145033 64 185 1.0 5.0 0.00 0.00 0.00 48 1016.8
20260508144612 64 222 1.0 5.0 0.00 0.00 0.00 48 1016.9
20260508144511 64 168 1.0 5.0 0.00 0.00 0.00 48 1016.9
20260508144354 64 173 1.0 5.0 0.00 0.00 0.00 48 1016.9
20260508144108 64 173 1.0 5.0 0.00 0.00 0.00 48 1016.9
20260508144034 64 78 1.0 4.0 0.00 0.00 0.00 48 1016.9
20260508143611 64 110 1.0 4.0 0.00 0.00 0.00 48 1016.8
20260508143513 64 45 2.0 4.0 0.00 0.00 0.00 48 1016.9
20260508143121 64 59 2.0 7.0 0.00 0.00 0.00 46 1016.9
20260508143016 64 30 2.0 7.0 0.00 0.00 0.00 47 1016.9
20260508142930 64 50 1.0 6.0 0.00 0.00 0.00 48 1017.0
20260508142657 64 42 2.0 7.0 0.00 0.00 0.00 47 1017.0
20260508142512 64 26 2.0 7.0 0.00 0.00 0.00 47 1017.0
20260508142015 64 38 1.0 6.0 0.00 0.00 0.00 48 1017.0
20260508141626 64 57 2.0 7.0 0.00 0.00 0.00 49 1017.2
20260508141512 64 30 2.0 7.0 0.00 0.00 0.00 49 1017.0
20260508141103 64 28 3.0 7.0 0.00 0.00 0.00 49 1016.9
20260508141012 64 26 3.0 7.0 0.00 0.00 0.00 49 1017.1
20260508140601 64 80 2.0 7.0 0.00 0.00 0.00 49 1017.1
20260508140512 64 30 2.0 7.0 0.00 0.00 0.00 49 1017.1
20260508140113 64 355 1.0 5.0 0.00 0.00 0.00 49 1017.0
20260508140013 64 44 1.0 5.0 0.00 0.00 0.00 49 1017.0
20260508135553 64 51 2.0 5.0 0.00 0.00 0.00 49 1017.0
20260508135511 64 31 2.0 5.0 0.00 0.00 0.00 49 1017.1
20260508135057 64 49 3.0 8.0 0.00 0.00 0.00 50 1017.1
20260508135012 64 23 2.0 8.0 0.00 0.00 0.00 50 1017.1
20260508134552 64 14 2.0 8.0 0.00 0.00 0.00 50 1017.0
20260508134512 64 28 2.0 8.0 0.00 0.00 0.00 50 1017.1
20260508134057 64 5 1.0 3.0 0.00 0.00 0.00 51 1017.0
20260508134012 64 107 0.0 3.0 0.00 0.00 0.00 51 1017.1
20260508133910 64 182 2.0 9.0 0.00 0.00 0.00 53 1017.1
20260508133658 64 98 1.0 4.0 0.00 0.00 0.00 51 1017.1
20260508133512 64 161 1.0 4.0 0.00 0.00 0.00 51 1017.1
20260508133013 64 60 2.0 9.0 0.00 0.00 0.00 52 1017.1
20260508132544 65 18 2.0 9.0 0.00 0.00 0.00 53 1017.1
20260508132511 64 32 2.0 9.0 0.00 0.00 0.00 52 1017.1
20260508132049 65 30 2.0 8.0 0.00 0.00 0.00 53 1017.1
20260508132012 64 26 2.0 8.0 0.00 0.00 0.00 53 1017.1
20260508131544 65 9 2.0 7.0 0.00 0.00 0.00 52 1017.1
20260508131511 65 33 2.0 5.0 0.00 0.00 0.00 52 1017.1
20260508131043 65 17 1.0 5.0 0.00 0.00 0.00 52 1017.1
20260508131015 65 45 1.0 5.0 0.00 0.00 0.00 52 1017.2
20260508130540 65 92 1.0 4.0 0.00 0.00 0.00 53 1017.0
20260508130513 64 44 1.0 4.0 0.00 0.00 0.00 53 1017.1
20260508130105 65 46 2.0 5.0 0.00 0.00 0.00 51 1017.0
20260508130033 64 37 2.0 5.0 0.00 0.00 0.00 51 1017.0
20260508125542 65 11 2.0 6.0 0.00 0.00 0.00 52 1017.1
20260508125512 64 38 3.0 6.0 0.00 0.00 0.00 53 1017.1
20260508125103 64 30 3.0 8.0 0.00 0.00 0.00 53 1017.1
20260508125012 64 34 2.0 8.0 0.00 0.00 0.00 53 1017.1
20260508124728 64 64 2.0 6.0 0.00 0.00 0.00 54 1017.1
20260508124620 64 44 3.0 8.0 0.00 0.00 0.00 53 1017.1
20260508124511 64 33 2.0 8.0 0.00 0.00 0.00 54 1017.2
20260508124012 64 40 2.0 6.0 0.00 0.00 0.00 54 1017.2
20260508123537 64 52 1.0 5.0 0.00 0.00 0.00 53 1017.1
20260508123512 64 60 1.0 5.0 0.00 0.00 0.00 53 1017.2
20260508123045 64 132 1.0 4.0 0.00 0.00 0.00 53 1017.2
20260508123012 64 122 1.0 4.0 0.00 0.00 0.00 53 1017.2
20260508122540 64 212 1.0 3.0 0.00 0.00 0.00 52 1017.1
20260508122512 64 86 1.0 3.0 0.00 0.00 0.00 52 1017.2
20260508122044 64 111 1.0 3.0 0.00 0.00 0.00 52 1017.1
20260508122015 64 50 1.0 3.0 0.00 0.00 0.00 52 1017.1
20260508121950 64 108 1.0 2.0 0.00 0.00 0.00 53 1017.1
20260508121720 64 29 1.0 3.0 0.00 0.00 0.00 53 1017.1
20260508121511 64 63 1.0 3.0 0.00 0.00 0.00 52 1017.2
20260508121012 64 130 1.0 2.0 0.00 0.00 0.00 53 1017.1
20260508120532 64 175 1.0 3.0 0.00 0.00 0.00 53 1017.1
20260508120529 64 124 1.0 4.0 0.00 0.00 0.00 53 1017.1
20260508120044 64 55 1.0 4.0 0.00 0.00 0.00 54 1017.0
20260508120014 64 169 1.0 4.0 0.00 0.00 0.00 54 1017.0
20260508115748 64 116 1.0 5.0 0.00 0.00 0.00 53 1017.0
20260508115532 64 157 1.0 5.0 0.00 0.00 0.00 53 1017.1
20260508115023 64 157 1.0 5.0 0.00 0.00 0.00 49 1017.0
20260508115012 64 159 1.0 5.0 0.00 0.00 0.00 49 1017.1
20260508114533 65 101 1.0 5.0 0.00 0.00 0.00 49 1017.0
20260508114524 65 186 1.0 5.0 0.00 0.00 0.00 50 1017.0
20260508114258 65 84 1.0 3.0 0.00 0.00 0.00 53 1017.0
20260508114028 65 84 1.0 3.0 0.00 0.00 0.00 53 1017.0
20260508114012 65 57 1.0 3.0 0.00 0.00 0.00 53 1017.0
20260508113517 64 163 1.0 4.0 0.00 0.00 0.00 52 1017.0
20260508113511 64 171 1.0 4.0 0.00 0.00 0.00 52 1017.1
20260508113053 65 196 2.0 6.0 0.00 0.00 0.00 52 1017.1
20260508113035 65 160 1.0 5.0 0.00 0.00 0.00 52 1017.1
20260508113013 64 178 1.0 5.0 0.00 0.00 0.00 51 1017.1
20260508112533 65 74 2.0 5.0 0.00 0.00 0.00 52 1017.2
20260508112012 65 39 3.0 7.0 0.00 0.00 0.00 52 1017.1
20260508112009 65 11 3.0 8.0 0.00 0.00 0.00 52 1017.0
20260508111512 65 37 3.0 8.0 0.00 0.00 0.00 53 1017.1
20260508111017 65 24 2.0 9.0 0.00 0.00 0.00 54 1017.1
20260508111012 66 28 2.0 9.0 0.00 0.00 0.00 54 1017.2
20260508110512 66 44 2.0 9.0 0.00 0.00 0.00 54 1017.2
20260508110019 65 169 2.0 6.0 0.00 0.00 0.00 54 1017.1
20260508110013 65 51 2.0 6.0 0.00 0.00 0.00 54 1017.2
20260508105512 65 28 3.0 7.0 0.00 0.00 0.00 57 1017.2
20260508105509 65 55 3.0 7.0 0.00 0.00 0.00 57 1017.2
20260508105040 65 9 2.0 7.0 0.00 0.00 0.00 57 1017.2
20260508105012 64 28 3.0 7.0 0.00 0.00 0.00 58 1017.2
20260508105009 64 12 3.0 7.0 0.00 0.00 0.00 58 1017.2
20260508104533 65 28 3.0 7.0 0.00 0.00 0.00 57 1017.2
20260508104128 64 19 2.0 8.0 0.00 0.00 0.00 60 1017.3
20260508104019 65 27 2.0 8.0 0.00 0.00 0.00 59 1017.2
20260508104012 64 22 2.0 8.0 0.00 0.00 0.00 59 1017.3
20260508103533 64 23 2.0 8.0 0.00 0.00 0.00 60 1017.3
20260508103012 64 26 3.0 8.0 0.00 0.00 0.00 59 1017.3
20260508103004 64 185 3.0 8.0 0.00 0.00 0.00 59 1017.2
20260508102909 63 57 2.0 5.0 0.00 0.00 0.00 62 1017.3
20260508102615 64 13 2.0 8.0 0.00 0.00 0.00 60 1017.3
20260508102532 64 24 3.0 8.0 0.00 0.00 0.00 59 1017.3
20260508102012 63 126 2.0 5.0 0.00 0.00 0.00 62 1017.3
20260508102009 63 57 2.0 5.0 0.00 0.00 0.00 62 1017.3
20260508101513 62 122 1.0 5.0 0.00 0.00 0.00 63 1017.4
20260508101454 62 347 1.0 5.0 0.00 0.00 0.00 62 1017.3
20260508101051 62 63 3.0 8.0 0.00 0.00 0.00 63 1017.4
20260508101012 62 47 2.0 6.0 0.00 0.00 0.00 62 1017.5
20260508101003 62 124 2.0 6.0 0.00 0.00 0.00 62 1017.4
20260508100511 62 27 3.0 8.0 0.00 0.00 0.00 63 1017.4
20260508100033 62 22 3.0 8.0 0.00 0.00 0.00 65 1017.4
20260508095951 62 12 3.0 8.0 0.00 0.00 0.00 64 1017.4
20260508095512 62 29 3.0 8.0 0.00 0.00 0.00 62 1017.4
20260508095444 62 13 3.0 8.0 0.00 0.00 0.00 62 1017.4
20260508095210 62 130 1.0 4.0 0.00 0.00 0.00 64 1017.4
20260508095012 62 43 2.0 8.0 0.00 0.00 0.00 63 1017.4
20260508094942 62 30 2.0 8.0 0.00 0.00 0.00 62 1017.3
20260508094511 62 48 1.0 4.0 0.00 0.00 0.00 64 1017.4
20260508094013 62 71 2.0 4.0 0.00 0.00 0.00 64 1017.4
20260508093947 62 15 2.0 4.0 0.00 0.00 0.00 64 1017.4
20260508093511 61 157 1.0 6.0 0.00 0.00 0.00 66 1017.4
20260508093430 61 11 1.0 6.0 0.00 0.00 0.00 66 1017.4
20260508093013 61 127 1.0 6.0 0.00 0.00 0.00 65 1017.4
20260508092933 61 167 1.0 6.0 0.00 0.00 0.00 65 1017.4
20260508092511 61 42 1.0 4.0 0.00 0.00 0.00 66 1017.4
20260508092458 60 5 1.0 5.0 0.00 0.00 0.00 66 1017.3
20260508092440 61 18 1.0 4.0 0.00 0.00 0.00 66 1017.4
20260508092012 60 53 1.0 4.0 0.00 0.00 0.00 67 1017.3
20260508091512 61 36 2.0 5.0 0.00 0.00 0.00 66 1017.3
20260508091426 61 154 2.0 5.0 0.00 0.00 0.00 66 1017.3
20260508091012 60 29 2.0 5.0 0.00 0.00 0.00 67 1017.4
20260508090932 60 32 2.0 5.0 0.00 0.00 0.00 67 1017.4
20260508090532 60 46 1.0 4.0 0.00 0.00 0.00 68 1017.4
20260508090424 60 53 1.0 4.0 0.00 0.00 0.00 68 1017.4
20260508090012 60 100 1.0 4.0 0.00 0.00 0.00 67 1017.4
20260508085927 60 46 1.0 4.0 0.00 0.00 0.00 67 1017.5
20260508085512 60 160 1.0 6.0 0.00 0.00 0.00 68 1017.4
20260508085428 60 182 1.0 6.0 0.00 0.00 0.00 68 1017.4
20260508085012 59 133 2.0 6.0 0.00 0.00 0.00 68 1017.5
20260508084916 59 27 2.0 6.0 0.00 0.00 0.00 69 1017.4
20260508084533 59 51 2.0 8.0 0.00 0.00 0.00 68 1017.4
20260508084422 59 80 2.0 8.0 0.00 0.00 0.00 69 1017.4
20260508084011 59 28 3.0 8.0 0.00 0.00 0.00 69 1017.4
20260508083916 59 355 3.0 8.0 0.00 0.00 0.00 69 1017.5
20260508083511 59 28 3.0 8.0 0.00 0.00 0.00 70 1017.4
20260508083427 59 22 2.0 8.0 0.00 0.00 0.00 70 1017.4
20260508083011 58 43 2.0 5.0 0.00 0.00 0.00 71 1017.5
20260508082927 58 31 1.0 5.0 0.00 0.00 0.00 72 1017.5
20260508082511 57 52 2.0 4.0 0.00 0.00 0.00 72 1017.4
20260508082429 57 87 2.0 6.0 0.00 0.00 0.00 72 1017.3
20260508082012 57 54 1.0 6.0 0.00 0.00 0.00 73 1017.3
20260508081925 57 67 1.0 6.0 0.00 0.00 0.00 74 1017.3
20260508081511 56 61 1.0 6.0 0.00 0.00 0.00 76 1017.3
20260508081427 56 46 1.0 4.0 0.00 0.00 0.00 76 1017.3
20260508081012 56 70 1.0 4.0 0.00 0.00 0.00 76 1017.3
20260508080907 55 103 1.0 4.0 0.00 0.00 0.00 77 1017.3
20260508080511 55 46 2.0 4.0 0.00 0.00 0.00 77 1017.3
20260508080409 55 108 2.0 4.0 0.00 0.00 0.00 77 1017.3
20260508080034 55 31 2.0 4.0 0.00 0.00 0.00 77 1017.3
20260508075908 55 55 2.0 4.0 0.00 0.00 0.00 77 1017.2
20260508075513 54 27 2.0 5.0 0.00 0.00 0.00 78 1017.3
20260508075415 54 17 2.0 5.0 0.00 0.00 0.00 78 1017.3
20260508075012 54 28 2.0 5.0 0.00 0.00 0.00 78 1017.2
20260508074929 54 15 2.0 7.0 0.00 0.00 0.00 78 1017.2
20260508074511 54 34 2.0 7.0 0.00 0.00 0.00 79 1017.2
20260508074423 54 11 2.0 7.0 0.00 0.00 0.00 79 1017.2
20260508074217 54 88 1.0 3.0 0.00 0.00 0.00 79 1017.2
20260508074012 54 43 1.0 7.0 0.00 0.00 0.00 79 1017.3
20260508073511 54 46 1.0 3.0 0.00 0.00 0.00 79 1017.3
20260508073011 54 58 1.0 3.0 0.00 0.00 0.00 80 1017.2
20260508072922 53 13 1.0 3.0 0.00 0.00 0.00 80 1017.2
20260508072511 53 49 1.0 4.0 0.00 0.00 0.00 80 1017.1
20260508072411 53 65 1.0 4.0 0.00 0.00 0.00 80 1017.1
20260508072011 53 41 1.0 4.0 0.00 0.00 0.00 80 1017.2
20260508071907 53 88 1.0 4.0 0.00 0.00 0.00 80 1017.2
20260508071513 53 49 1.0 4.0 0.00 0.00 0.00 80 1017.2
20260508071447 52 24 1.0 4.0 0.00 0.00 0.00 81 1017.1
20260508071438 53 77 1.0 3.0 0.00 0.00 0.00 81 1017.0
20260508071413 53 22 1.0 4.0 0.00 0.00 0.00 81 1017.1
20260508071012 53 63 1.0 3.0 0.00 0.00 0.00 81 1017.1
20260508070532 53 60 1.0 3.0 0.00 0.00 0.00 81 1017.2
20260508070433 53 53 1.0 3.0 0.00 0.00 0.00 81 1017.1
20260508070012 52 49 1.0 4.0 0.00 0.00 0.00 81 1017.2
20260508065511 52 45 1.0 4.0 0.00 0.00 0.00 81 1017.1
20260508065413 52 54 1.0 4.0 0.00 0.00 0.00 81 1017.0
20260508065012 52 52 1.0 5.0 0.00 0.00 0.00 81 1017.0
20260508064920 52 22 1.0 5.0 0.00 0.00 0.00 81 1017.1
20260508064511 52 60 1.0 5.0 0.00 0.00 0.00 81 1017.0
20260508064411 52 51 1.0 5.0 0.00 0.00 0.00 81 1017.0
20260508064011 52 60 1.0 5.0 0.00 0.00 0.00 81 1017.0
20260508063917 52 50 1.0 5.0 0.00 0.00 0.00 81 1017.0
20260508063532 52 55 1.0 5.0 0.00 0.00 0.00 81 1017.0
20260508063409 52 69 1.0 5.0 0.00 0.00 0.00 81 1017.0
20260508063012 52 55 1.0 4.0 0.00 0.00 0.00 81 1017.0
20260508062910 52 49 1.0 4.0 0.00 0.00 0.00 81 1016.9
20260508062533 52 50 0.0 4.0 0.00 0.00 0.00 81 1017.0
20260508062406 52 51 1.0 4.0 0.00 0.00 0.00 81 1016.9
20260508062011 52 53 0.0 3.0 0.00 0.00 0.00 81 1016.9
20260508061937 52 78 0.0 4.0 0.00 0.00 0.00 81 1016.8
20260508061905 52 46 0.0 2.0 0.00 0.00 0.00 81 1016.9
20260508061511 52 72 0.0 2.0 0.00 0.00 0.00 81 1016.9
20260508061012 52 45 1.0 4.0 0.00 0.00 0.00 81 1016.8
20260508060858 52 78 1.0 4.0 0.00 0.00 0.00 81 1016.7
20260508060532 52 44 1.0 4.0 0.00 0.00 0.00 82 1016.9
20260508060346 52 17 1.0 3.0 0.00 0.00 0.00 82 1016.8
20260508060012 52 49 1.0 3.0 0.00 0.00 0.00 82 1016.8
20260508055835 52 79 1.0 3.0 0.00 0.00 0.00 82 1016.8
20260508055511 52 70 1.0 3.0 0.00 0.00 0.00 82 1016.8
20260508055337 52 22 1.0 3.0 0.00 0.00 0.00 82 1016.8
20260508055013 52 90 1.0 3.0 0.00 0.00 0.00 82 1016.9
20260508054847 52 163 1.0 4.0 0.00 0.00 0.00 82 1016.8
20260508054828 51 74 1.0 4.0 0.00 0.00 0.00 82 1016.8
20260508054511 52 54 1.0 4.0 0.00 0.00 0.00 82 1016.8
20260508054117 51 35 0.0 3.0 0.00 0.00 0.00 82 1016.8
20260508054012 52 39 0.0 4.0 0.00 0.00 0.00 82 1016.8
20260508053900 51 22 0.0 4.0 0.00 0.00 0.00 82 1016.7
20260508053511 52 22 0.0 2.0 0.00 0.00 0.00 82 1016.8
20260508053012 51 53 1.0 4.0 0.00 0.00 0.00 82 1016.7
20260508052832 51 22 1.0 4.0 0.00 0.00 0.00 82 1016.7
20260508052511 51 83 0.0 4.0 0.00 0.00 0.00 82 1016.7
20260508052339 51 125 0.0 2.0 0.00 0.00 0.00 82 1016.7
20260508052107 51 125 1.0 4.0 0.00 0.00 0.00 82 1016.6
20260508052011 51 117 0.0 2.0 0.00 0.00 0.00 82 1016.7
20260508051901 51 125 0.0 2.0 0.00 0.00 0.00 82 1016.6
20260508051511 51 84 1.0 4.0 0.00 0.00 0.00 82 1016.6
20260508051012 51 89 1.0 4.0 0.00 0.00 0.00 81 1016.6
20260508050839 51 96 1.0 4.0 0.00 0.00 0.00 82 1016.5
20260508050511 51 109 0.0 2.0 0.00 0.00 0.00 82 1016.6
20260508050333 51 111 0.0 2.0 0.00 0.00 0.00 82 1016.5
20260508050012 52 79 0.0 2.0 0.00 0.00 0.00 82 1016.6
20260508045831 51 90 0.0 2.0 0.00 0.00 0.00 82 1016.5
20260508045512 51 68 0.0 2.0 0.00 0.00 0.00 82 1016.5
20260508045321 51 84 0.0 2.0 0.00 0.00 0.00 82 1016.5
20260508045033 52 59 0.0 2.0 0.00 0.00 0.00 81 1016.6
20260508044813 51 60 0.0 3.0 0.00 0.00 0.00 81 1016.6
20260508044511 52 79 0.0 3.0 0.00 0.00 0.00 81 1016.5
20260508044320 51 60 1.0 3.0 0.00 0.00 0.00 81 1016.5
20260508044033 52 77 1.0 3.0 0.00 0.00 0.00 81 1016.5
20260508043819 52 109 1.0 3.0 0.00 0.00 0.00 81 1016.4
20260508043511 52 74 1.0 3.0 0.00 0.00 0.00 81 1016.4
20260508043312 52 74 0.0 3.0 0.00 0.00 0.00 81 1016.3
20260508043011 52 97 1.0 3.0 0.00 0.00 0.00 81 1016.4
20260508042823 52 53 1.0 4.0 0.00 0.00 0.00 81 1016.3
20260508042511 52 86 1.0 4.0 0.00 0.00 0.00 81 1016.4
20260508042316 52 76 1.0 4.0 0.00 0.00 0.00 81 1016.4
20260508042033 52 81 1.0 4.0 0.00 0.00 0.00 81 1016.3
20260508041810 52 94 0.0 2.0 0.00 0.00 0.00 80 1016.3
20260508041511 52 94 0.0 2.0 0.00 0.00 0.00 80 1016.3
20260508041311 52 94 0.0 3.0 0.00 0.00 0.00 80 1016.3
20260508041011 52 78 0.0 3.0 0.00 0.00 0.00 80 1016.4
20260508040809 52 94 1.0 3.0 0.00 0.00 0.00 80 1016.3
20260508040511 52 80 1.0 3.0 0.00 0.00 0.00 80 1016.4
20260508040314 52 69 1.0 3.0 0.00 0.00 0.00 80 1016.3
20260508040011 52 100 1.0 3.0 0.00 0.00 0.00 80 1016.3
20260508035808 52 69 1.0 4.0 0.00 0.00 0.00 80 1016.2
20260508035511 52 91 1.0 4.0 0.00 0.00 0.00 80 1016.3
20260508035315 52 175 1.0 4.0 0.00 0.00 0.00 80 1016.2
20260508035012 52 96 0.0 4.0 0.00 0.00 0.00 79 1016.2
20260508034810 52 132 0.0 3.0 0.00 0.00 0.00 79 1016.3
20260508034511 52 121 0.0 2.0 0.00 0.00 0.00 79 1016.3
20260508034310 52 142 0.0 2.0 0.00 0.00 0.00 79 1016.2
20260508034012 52 96 0.0 3.0 0.00 0.00 0.00 79 1016.3
20260508033821 53 67 0.0 3.0 0.00 0.00 0.00 79 1016.2
20260508033511 52 94 0.0 4.0 0.00 0.00 0.00 79 1016.3
20260508033311 53 121 1.0 4.0 0.00 0.00 0.00 79 1016.2
20260508033011 52 66 0.0 4.0 0.00 0.00 0.00 79 1016.3
20260508032803 53 82 0.0 4.0 0.00 0.00 0.00 79 1016.2
20260508032511 53 63 1.0 3.0 0.00 0.00 0.00 79 1016.3
20260508032301 53 57 0.0 2.0 0.00 0.00 0.00 78 1016.2
20260508032013 53 91 0.0 2.0 0.00 0.00 0.00 78 1016.3
20260508031757 53 67 0.0 2.0 0.00 0.00 0.00 78 1016.2
20260508031512 53 99 0.0 1.0 0.00 0.00 0.00 78 1016.3
20260508031249 53 108 0.0 2.0 0.00 0.00 0.00 78 1016.1
20260508031011 53 115 0.0 2.0 0.00 0.00 0.00 78 1016.2
20260508030826 53 123 0.0 3.0 0.00 0.00 0.00 78 1016.2
20260508030746 53 82 0.0 2.0 0.00 0.00 0.00 78 1016.2
20260508030511 53 122 0.0 2.0 0.00 0.00 0.00 78 1016.2
20260508030011 53 87 0.0 3.0 0.00 0.00 0.00 78 1016.2
20260508025728 53 116 0.0 3.0 0.00 0.00 0.00 78 1016.2
20260508025511 53 108 0.0 3.0 0.00 0.00 0.00 78 1016.2
20260508025240 53 92 0.0 4.0 0.00 0.00 0.00 78 1016.1
20260508025012 53 104 0.0 4.0 0.00 0.00 0.00 78 1016.2
20260508024727 53 157 0.0 4.0 0.00 0.00 0.00 77 1016.1
20260508024511 53 71 0.0 4.0 0.00 0.00 0.00 77 1016.2
20260508024211 53 78 0.0 2.0 0.00 0.00 0.00 77 1016.1
20260508024043 53 63 0.0 3.0 0.00 0.00 0.00 77 1016.1
20260508024011 53 77 0.0 2.0 0.00 0.00 0.00 77 1016.2
20260508023830 53 92 0.0 2.0 0.00 0.00 0.00 77 1016.1
20260508023511 53 82 0.0 3.0 0.00 0.00 0.00 77 1016.2
20260508023011 53 86 1.0 3.0 0.00 0.00 0.00 77 1016.2
20260508022711 53 82 0.0 3.0 0.00 0.00 0.00 77 1016.1
20260508022510 53 73 0.0 3.0 0.00 0.00 0.00 77 1016.1
20260508022212 53 106 0.0 3.0 0.00 0.00 0.00 77 1016.1
20260508022011 53 63 0.0 3.0 0.00 0.00 0.00 77 1016.2
20260508021705 53 56 0.0 3.0 0.00 0.00 0.00 77 1016.1
20260508021512 53 58 0.0 3.0 0.00 0.00 0.00 77 1016.2
20260508021219 53 46 0.0 3.0 0.00 0.00 0.00 77 1016.0
20260508021011 53 77 0.0 3.0 0.00 0.00 0.00 77 1016.2
20260508020714 53 83 0.0 4.0 0.00 0.00 0.00 76 1016.0
20260508020511 54 84 0.0 4.0 0.00 0.00 0.00 76 1016.1
20260508020207 53 111 0.0 4.0 0.00 0.00 0.00 76 1016.1
20260508020011 54 57 0.0 4.0 0.00 0.00 0.00 76 1016.2
20260508015706 54 44 0.0 1.0 0.00 0.00 0.00 76 1016.1
20260508015511 54 44 0.0 1.0 0.00 0.00 0.00 76 1016.1
20260508015139 54 44 0.0 1.0 0.00 0.00 0.00 76 1016.1
20260508015011 54 49 0.0 3.0 0.00 0.00 0.00 76 1016.1
20260508014642 54 44 0.0 3.0 0.00 0.00 0.00 76 1016.1
20260508014511 54 65 0.0 3.0 0.00 0.00 0.00 76 1016.2
20260508014136 54 44 0.0 3.0 0.00 0.00 0.00 75 1016.1
20260508014011 54 134 0.0 3.0 0.00 0.00 0.00 75 1016.1
20260508013624 54 143 0.0 3.0 0.00 0.00 0.00 75 1016.0
20260508013510 54 92 0.0 3.0 0.00 0.00 0.00 75 1016.2
20260508013111 54 152 0.0 2.0 0.00 0.00 0.00 75 1016.0
20260508013011 54 60 0.0 2.0 0.00 0.00 0.00 75 1016.1
20260508012607 54 71 0.0 2.0 0.00 0.00 0.00 75 1016.1
20260508012511 54 55 0.0 1.0 0.00 0.00 0.00 75 1016.2
20260508012148 54 55 0.0 3.0 0.00 0.00 0.00 74 1016.1
20260508012123 54 55 0.0 3.0 0.00 0.00 0.00 74 1016.1
20260508012011 54 68 0.0 3.0 0.00 0.00 0.00 74 1016.1
20260508011513 54 72 0.0 3.0 0.00 0.00 0.00 74 1016.1
20260508011104 54 85 0.0 1.0 0.00 0.00 0.00 74 1016.1
20260508011011 54 85 0.0 1.0 0.00 0.00 0.00 74 1016.2
20260508010542 54 85 0.0 2.0 0.00 0.00 0.00 73 1016.1
20260508010532 54 90 0.0 2.0 0.00 0.00 0.00 73 1016.2
20260508010050 54 85 0.0 2.0 0.00 0.00 0.00 73 1016.2
20260508010011 54 92 0.0 2.0 0.00 0.00 0.00 73 1016.2
20260508005542 54 98 0.0 2.0 0.00 0.00 0.00 73 1016.2
20260508005511 54 99 0.0 2.0 0.00 0.00 0.00 73 1016.2
20260508005047 54 98 0.0 2.0 0.00 0.00 0.00 73 1016.1
20260508005011 54 89 0.0 2.0 0.00 0.00 0.00 73 1016.2
20260508004530 55 71 0.0 1.0 0.00 0.00 0.00 72 1016.1
20260508004511 54 67 0.0 1.0 0.00 0.00 0.00 72 1016.2
20260508004026 55 67 0.0 1.0 0.00 0.00 0.00 72 1016.2
20260508004013 54 67 0.0 1.0 0.00 0.00 0.00 72 1016.2
20260508003526 55 67 0.0 1.0 0.00 0.00 0.00 72 1016.2
20260508003513 55 67 0.0 1.0 0.00 0.00 0.00 72 1016.2
20260508003016 55 67 0.0 1.0 0.00 0.00 0.00 72 1016.3
20260508003012 55 67 0.0 1.0 0.00 0.00 0.00 72 1016.3
20260508002510 55 67 0.0 1.0 0.00 0.00 0.00 71 1016.3
20260508002011 55 67 0.0 1.0 0.00 0.00 0.00 71 1016.3
20260508001937 55 67 0.0 1.0 0.00 0.00 0.00 71 1016.2
20260508001510 55 0 0.0 0.0 0.00 0.00 0.00 71 1016.3
20260508001450 55 67 0.0 1.0 0.00 0.00 0.00 71 1016.3
20260508001438 55 67 0.0 0.0 0.00 0.00 0.00 71 1016.2
20260508001011 55 67 0.0 1.0 0.00 0.00 0.00 71 1016.3
20260508000511 55 67 0.0 1.0 0.00 0.00 0.00 71 1016.3
20260508000435 55 67 0.0 1.0 0.00 0.00 0.00 70 1016.3
20260508000011 55 67 0.0 1.0 0.00 0.00 0.00 70 1016.3
20260507235925 55 67 0.0 1.0 0.00 0.00 0.00 70 1016.3
20260507235513 55 67 0.0 2.0 0.00 0.00 0.00 70 1016.3
20260507235422 55 67 0.0 2.0 0.00 0.00 0.00 70 1016.3
20260507235011 55 67 0.0 2.0 0.00 0.00 0.00 70 1016.3
20260507234917 55 67 0.0 2.0 0.00 0.00 0.00 70 1016.3
20260507234511 55 67 0.0 1.0 0.00 0.00 0.00 70 1016.4
20260507234419 55 67 0.0 1.0 0.00 0.00 0.00 70 1016.3
20260507234011 55 67 0.0 1.0 0.00 0.00 0.00 70 1016.4
20260507234000 55 67 0.0 2.0 0.00 0.00 0.00 69 1016.4
20260507233923 55 67 0.0 1.0 0.00 0.00 0.00 70 1016.4
20260507233615 55 67 0.0 2.0 0.00 0.00 0.00 69 1016.3
20260507233510 55 67 0.0 2.0 0.00 0.00 0.00 70 1016.5
20260507233011 55 67 0.0 2.0 0.00 0.00 0.00 69 1016.4
20260507232511 55 67 0.0 1.0 0.00 0.00 0.00 69 1016.5
20260507232348 55 67 0.0 1.0 0.00 0.00 0.00 69 1016.4
20260507232011 56 0 0.0 0.0 0.00 0.00 0.00 69 1016.5
20260507231840 56 67 0.0 0.0 0.00 0.00 0.00 69 1016.5
20260507231511 56 67 0.0 1.0 0.00 0.00 0.00 69 1016.5
20260507231332 56 67 0.0 1.0 0.00 0.00 0.00 69 1016.3
20260507231011 56 67 0.0 1.0 0.00 0.00 0.00 69 1016.4
20260507230833 56 67 0.0 1.0 0.00 0.00 0.00 69 1016.4
20260507230511 56 67 0.0 1.0 0.00 0.00 0.00 69 1016.4
20260507230332 56 67 0.0 1.0 0.00 0.00 0.00 69 1016.5
20260507230011 56 67 0.0 1.0 0.00 0.00 0.00 69 1016.5
20260507225932 56 67 0.0 1.0 0.00 0.00 0.00 68 1016.5
20260507225844 56 67 0.0 1.0 0.00 0.00 0.00 69 1016.5
20260507225511 56 67 0.0 1.0 0.00 0.00 0.00 68 1016.5
20260507225011 56 67 0.0 1.0 0.00 0.00 0.00 68 1016.5
20260507224819 56 67 0.0 1.0 0.00 0.00 0.00 68 1016.4
20260507224511 56 67 0.0 1.0 0.00 0.00 0.00 68 1016.5
20260507224320 56 67 0.0 1.0 0.00 0.00 0.00 68 1016.4
20260507224011 56 67 0.0 1.0 0.00 0.00 0.00 68 1016.5
20260507223823 56 67 0.0 1.0 0.00 0.00 0.00 68 1016.5
20260507223510 56 67 0.0 1.0 0.00 0.00 0.00 67 1016.5
20260507223321 56 67 0.0 1.0 0.00 0.00 0.00 68 1016.4
20260507223011 56 0 0.0 0.0 0.00 0.00 0.00 67 1016.6
20260507222810 56 67 0.0 0.0 0.00 0.00 0.00 67 1016.6
20260507222511 56 0 0.0 0.0 0.00 0.00 0.00 67 1016.5
20260507222314 56 67 0.0 0.0 0.00 0.00 0.00 67 1016.5
20260507222012 56 0 0.0 0.0 0.00 0.00 0.00 67 1016.5
20260507221812 56 67 0.0 0.0 0.00 0.00 0.00 67 1016.5
20260507221511 56 0 0.0 0.0 0.00 0.00 0.00 66 1016.4
20260507221314 56 67 0.0 0.0 0.00 0.00 0.00 66 1016.5
20260507221012 56 0 0.0 0.0 0.00 0.00 0.00 66 1016.5
20260507220814 56 67 0.0 0.0 0.00 0.00 0.00 66 1016.4
20260507220511 56 0 0.0 0.0 0.00 0.00 0.00 66 1016.5
20260507220317 56 67 0.0 0.0 0.00 0.00 0.00 66 1016.4
20260507215811 57 67 0.0 0.0 0.00 0.00 0.00 66 1016.3
20260507215510 56 67 0.0 1.0 0.00 0.00 0.00 66 1016.4
20260507215316 57 67 0.0 1.0 0.00 0.00 0.00 66 1016.4
20260507215012 57 67 0.0 1.0 0.00 0.00 0.00 66 1016.4
20260507214809 57 67 0.0 1.0 0.00 0.00 0.00 65 1016.3
20260507214511 57 0 0.0 0.0 0.00 0.00 0.00 65 1016.5
20260507214307 57 67 0.0 0.0 0.00 0.00 0.00 65 1016.3
20260507214012 57 0 0.0 0.0 0.00 0.00 0.00 65 1016.3
20260507213805 57 67 0.0 0.0 0.00 0.00 0.00 65 1016.2
20260507213511 57 0 0.0 0.0 0.00 0.00 0.00 65 1016.3
20260507213314 57 67 0.0 0.0 0.00 0.00 0.00 65 1016.2
20260507213011 57 0 0.0 0.0 0.00 0.00 0.00 64 1016.3
20260507212841 57 67 0.0 0.0 0.00 0.00 0.00 64 1016.3
20260507212826 57 67 0.0 0.0 0.00 0.00 0.00 64 1016.3
20260507212512 57 0 0.0 0.0 0.00 0.00 0.00 64 1016.4
20260507212011 57 0 0.0 0.0 0.00 0.00 0.00 64 1016.4
20260507211817 57 67 0.0 1.0 0.00 0.00 0.00 64 1016.3
20260507211513 57 67 0.0 1.0 0.00 0.00 0.00 64 1016.4
20260507211358 57 67 0.0 1.0 0.00 0.00 0.00 64 1016.3
20260507211325 57 67 0.0 1.0 0.00 0.00 0.00 64 1016.3
20260507211011 57 67 0.0 1.0 0.00 0.00 0.00 64 1016.4
20260507210511 57 67 0.0 1.0 0.00 0.00 0.00 64 1016.4
20260507210301 57 67 0.0 1.0 0.00 0.00 0.00 63 1016.3
20260507210011 57 67 0.0 1.0 0.00 0.00 0.00 63 1016.3
20260507205758 57 67 0.0 1.0 0.00 0.00 0.00 63 1016.2
20260507205510 57 0 0.0 0.0 0.00 0.00 0.00 63 1016.3
20260507205306 57 67 0.0 1.0 0.00 0.00 0.00 63 1016.1
20260507205011 58 67 0.0 1.0 0.00 0.00 0.00 63 1016.3
20260507204739 58 67 0.0 1.0 0.00 0.00 0.00 63 1016.2
20260507204510 58 67 0.0 2.0 0.00 0.00 0.00 63 1016.2
20260507204242 58 67 0.0 2.0 0.00 0.00 0.00 63 1016.2
20260507204011 58 51 0.0 2.0 0.00 0.00 0.00 63 1016.2
20260507203819 58 24 0.0 3.0 0.00 0.00 0.00 62 1016.2
20260507203756 58 67 0.0 2.0 0.00 0.00 0.00 63 1016.2
20260507203510 58 35 0.0 2.0 0.00 0.00 0.00 62 1016.2
20260507203011 58 39 1.0 3.0 0.00 0.00 0.00 62 1016.2
20260507202731 58 24 1.0 3.0 0.00 0.00 0.00 62 1016.1
20260507202531 58 44 1.0 3.0 0.00 0.00 0.00 62 1016.2
20260507202242 58 51 0.0 2.0 0.00 0.00 0.00 62 1016.2
20260507202225 58 51 0.0 0.0 0.00 0.00 0.00 61 1015.8
20260507202214 58 51 0.0 1.0 0.00 0.00 0.00 61 1016.0
20260507202011 58 51 0.0 2.0 0.00 0.00 0.00 62 1016.2
20260507201926 58 51 0.0 1.0 0.00 0.00 0.00 62 1016.1
20260507201510 58 51 0.0 1.0 0.00 0.00 0.00 62 1016.0
20260507201032 58 51 0.0 1.0 0.00 0.00 0.00 61 1016.1
20260507200807 58 51 0.0 1.0 0.00 0.00 0.00 61 1015.8
20260507200531 58 51 0.0 1.0 0.00 0.00 0.00 61 1015.9
20260507200011 58 0 0.0 0.0 0.00 0.00 0.00 61 1015.9
20260507195722 58 51 0.0 1.0 0.00 0.00 0.00 60 1015.8
20260507195511 58 51 0.0 1.0 0.00 0.00 0.00 60 1015.8
20260507195211 58 51 0.0 1.0 0.00 0.00 0.00 60 1015.8
20260507195031 58 51 0.0 1.0 0.00 0.00 0.00 60 1015.8
20260507194708 59 51 0.0 1.0 0.00 0.00 0.00 60 1015.7
20260507194510 59 51 0.0 1.0 0.00 0.00 0.00 60 1015.7
20260507194209 59 51 0.0 1.0 0.00 0.00 0.00 60 1015.8
20260507194011 59 51 0.0 1.0 0.00 0.00 0.00 60 1015.7
20260507193802 59 51 0.0 1.0 0.00 0.00 0.00 59 1015.7
20260507193727 59 51 0.0 1.0 0.00 0.00 0.00 59 1015.7
20260507193532 59 51 0.0 1.0 0.00 0.00 0.00 59 1015.8
20260507193011 59 51 0.0 2.0 0.00 0.00 0.00 59 1015.7
20260507192707 59 51 0.0 2.0 0.00 0.00 0.00 59 1015.7
20260507192510 59 51 0.0 2.0 0.00 0.00 0.00 59 1015.7
20260507192204 59 51 0.0 2.0 0.00 0.00 0.00 59 1015.6
20260507192011 59 51 0.0 1.0 0.00 0.00 0.00 59 1015.6
20260507191827 59 51 0.0 2.0 0.00 0.00 0.00 58 1015.6
20260507191716 59 51 0.0 1.0 0.00 0.00 0.00 59 1015.5
20260507191533 59 51 0.0 1.0 0.00 0.00 0.00 59 1015.6
20260507191032 59 51 0.0 2.0 0.00 0.00 0.00 58 1015.7
20260507190650 59 51 0.0 2.0 0.00 0.00 0.00 58 1015.5
20260507190510 59 50 0.0 2.0 0.00 0.00 0.00 58 1015.6
20260507190158 59 51 0.0 2.0 0.00 0.00 0.00 58 1015.6
20260507190012 60 44 0.0 2.0 0.00 0.00 0.00 58 1015.6
20260507185634 60 35 0.0 2.0 0.00 0.00 0.00 58 1015.6
20260507185510 60 39 0.0 2.0 0.00 0.00 0.00 58 1015.6
20260507185139 60 35 1.0 2.0 0.00 0.00 0.00 57 1015.6
20260507185032 60 51 1.0 2.0 0.00 0.00 0.00 57 1015.7
20260507184639 60 35 1.0 2.0 0.00 0.00 0.00 57 1015.6
20260507184609 60 55 1.0 3.0 0.00 0.00 0.00 56 1015.6
20260507184510 60 48 1.0 3.0 0.00 0.00 0.00 56 1015.6
20260507184011 60 38 1.0 3.0 0.00 0.00 0.00 56 1015.7
20260507183645 60 38 1.0 3.0 0.00 0.00 0.00 56 1015.5
20260507183510 60 38 1.0 3.0 0.00 0.00 0.00 56 1015.6
20260507183136 60 38 1.0 3.0 0.00 0.00 0.00 56 1015.6
20260507183102 60 38 1.0 3.0 0.00 0.00 0.00 56 1015.5
20260507183011 60 37 1.0 3.0 0.00 0.00 0.00 56 1015.6
20260507182510 60 30 1.0 3.0 0.00 0.00 0.00 56 1015.6
20260507182128 60 38 1.0 3.0 0.00 0.00 0.00 55 1015.5
20260507182011 60 29 1.0 3.0 0.00 0.00 0.00 55 1015.5
20260507181621 60 19 1.0 3.0 0.00 0.00 0.00 55 1015.6
20260507181510 60 28 1.0 4.0 0.00 0.00 0.00 55 1015.6
20260507181115 60 25 1.0 4.0 0.00 0.00 0.00 55 1015.6
20260507181011 60 34 1.0 4.0 0.00 0.00 0.00 55 1015.6
20260507180615 60 25 1.0 4.0 0.00 0.00 0.00 54 1015.5
20260507180510 60 62 0.0 3.0 0.00 0.00 0.00 54 1015.6
20260507180114 60 65 0.0 2.0 0.00 0.00 0.00 54 1015.5
20260507180013 60 85 0.0 2.0 0.00 0.00 0.00 54 1015.6
20260507175615 61 97 0.0 2.0 0.00 0.00 0.00 53 1015.5
20260507175511 61 108 0.0 1.0 0.00 0.00 0.00 53 1015.6
20260507175122 61 105 1.0 3.0 0.00 0.00 0.00 53 1015.6
20260507175011 61 36 1.0 3.0 0.00 0.00 0.00 53 1015.5
20260507174634 61 26 1.0 3.0 0.00 0.00 0.00 52 1015.4
20260507174555 61 13 1.0 3.0 0.00 0.00 0.00 52 1015.5
20260507174510 61 43 1.0 3.0 0.00 0.00 0.00 52 1015.5
20260507174010 61 59 1.0 3.0 0.00 0.00 0.00 52 1015.5
20260507173611 61 59 1.0 4.0 0.00 0.00 0.00 52 1015.6
20260507173531 61 54 1.0 4.0 0.00 0.00 0.00 52 1015.6
20260507173110 61 59 1.0 4.0 0.00 0.00 0.00 52 1015.5
20260507173011 61 36 1.0 4.0 0.00 0.00 0.00 52 1015.5
20260507172615 61 40 2.0 4.0 0.00 0.00 0.00 52 1015.4
20260507172510 61 21 2.0 4.0 0.00 0.00 0.00 52 1015.5
20260507172109 61 23 1.0 4.0 0.00 0.00 0.00 52 1015.4
20260507172010 61 19 1.0 4.0 0.00 0.00 0.00 52 1015.5
20260507171622 61 17 1.0 2.0 0.00 0.00 0.00 52 1015.5
20260507171510 61 17 1.0 2.0 0.00 0.00 0.00 53 1015.5
20260507171113 61 17 0.0 2.0 0.00 0.00 0.00 52 1015.5
20260507171011 61 17 0.0 2.0 0.00 0.00 0.00 52 1015.5
20260507170611 61 17 0.0 2.0 0.00 0.00 0.00 51 1015.5
20260507170510 61 17 0.0 2.0 0.00 0.00 0.00 52 1015.5
20260507170123 61 17 0.0 2.0 0.00 0.00 0.00 52 1015.5
20260507170011 61 17 0.0 2.0 0.00 0.00 0.00 52 1015.4
20260507165611 61 17 0.0 2.0 0.00 0.00 0.00 52 1015.4
20260507165511 61 17 0.0 2.0 0.00 0.00 0.00 52 1015.4
20260507165108 61 17 0.0 1.0 0.00 0.00 0.00 51 1015.4
20260507165012 61 17 0.0 1.0 0.00 0.00 0.00 51 1015.4
20260507164604 61 17 0.0 1.0 0.00 0.00 0.00 52 1015.4
20260507164511 61 17 0.0 1.0 0.00 0.00 0.00 52 1015.4